Index of /20260503/WXO-DD/model_caps/3km/12/033
Name Last modified Size Description
Parent Directory -
20260503T12Z_MSC_CAPS_AbsoluteVorticity_IsbL-0250_RLatLon0.03_PT033H.grib2 2026-05-03 18:16 1.1M
20260503T12Z_MSC_CAPS_AbsoluteVorticity_IsbL-0500_RLatLon0.03_PT033H.grib2 2026-05-03 18:16 1.1M
20260503T12Z_MSC_CAPS_AbsoluteVorticity_IsbL-0700_RLatLon0.03_PT033H.grib2 2026-05-03 18:16 1.1M
20260503T12Z_MSC_CAPS_AbsoluteVorticity_IsbL-0850_RLatLon0.03_PT033H.grib2 2026-05-03 18:16 1.2M
20260503T12Z_MSC_CAPS_AbsoluteVorticity_IsbL-1000_RLatLon0.03_PT033H.grib2 2026-05-03 18:16 1.4M
20260503T12Z_MSC_CAPS_AirDensity_AGL-120m_RLatLon0.03_PT033H.grib2 2026-05-03 18:16 1.4M
20260503T12Z_MSC_CAPS_AirDensity_AGL-40m_RLatLon0.03_PT033H.grib2 2026-05-03 18:16 1.4M
20260503T12Z_MSC_CAPS_AirDensity_AGL-80m_RLatLon0.03_PT033H.grib2 2026-05-03 18:16 1.4M
20260503T12Z_MSC_CAPS_AirTemp_AGL-120m_RLatLon0.03_PT033H.grib2 2026-05-03 18:16 1.4M
20260503T12Z_MSC_CAPS_AirTemp_AGL-2m_RLatLon0.03_PT033H.grib2 2026-05-03 18:16 1.7M
20260503T12Z_MSC_CAPS_AirTemp_AGL-40m_RLatLon0.03_PT033H.grib2 2026-05-03 18:16 1.5M
20260503T12Z_MSC_CAPS_AirTemp_AGL-80m_RLatLon0.03_PT033H.grib2 2026-05-03 18:16 1.4M
20260503T12Z_MSC_CAPS_AirTemp_IsbL-0050_RLatLon0.03_PT033H.grib2 2026-05-03 18:16 686K
20260503T12Z_MSC_CAPS_AirTemp_IsbL-0100_RLatLon0.03_PT033H.grib2 2026-05-03 18:16 958K
20260503T12Z_MSC_CAPS_AirTemp_IsbL-0150_RLatLon0.03_PT033H.grib2 2026-05-03 18:16 742K
20260503T12Z_MSC_CAPS_AirTemp_IsbL-0175_RLatLon0.03_PT033H.grib2 2026-05-03 18:16 762K
20260503T12Z_MSC_CAPS_AirTemp_IsbL-0200_RLatLon0.03_PT033H.grib2 2026-05-03 18:16 787K
20260503T12Z_MSC_CAPS_AirTemp_IsbL-0225_RLatLon0.03_PT033H.grib2 2026-05-03 18:16 791K
20260503T12Z_MSC_CAPS_AirTemp_IsbL-0250_RLatLon0.03_PT033H.grib2 2026-05-03 18:16 783K
20260503T12Z_MSC_CAPS_AirTemp_IsbL-0275_RLatLon0.03_PT033H.grib2 2026-05-03 18:16 1.0M
20260503T12Z_MSC_CAPS_AirTemp_IsbL-0300_RLatLon0.03_PT033H.grib2 2026-05-03 18:16 1.0M
20260503T12Z_MSC_CAPS_AirTemp_IsbL-0350_RLatLon0.03_PT033H.grib2 2026-05-03 18:16 747K
20260503T12Z_MSC_CAPS_AirTemp_IsbL-0400_RLatLon0.03_PT033H.grib2 2026-05-03 18:16 753K
20260503T12Z_MSC_CAPS_AirTemp_IsbL-0450_RLatLon0.03_PT033H.grib2 2026-05-03 18:16 769K
20260503T12Z_MSC_CAPS_AirTemp_IsbL-0500_RLatLon0.03_PT033H.grib2 2026-05-03 18:16 788K
20260503T12Z_MSC_CAPS_AirTemp_IsbL-0550_RLatLon0.03_PT033H.grib2 2026-05-03 18:16 800K
20260503T12Z_MSC_CAPS_AirTemp_IsbL-0600_RLatLon0.03_PT033H.grib2 2026-05-03 18:16 1.0M
20260503T12Z_MSC_CAPS_AirTemp_IsbL-0650_RLatLon0.03_PT033H.grib2 2026-05-03 18:16 1.0M
20260503T12Z_MSC_CAPS_AirTemp_IsbL-0700_RLatLon0.03_PT033H.grib2 2026-05-03 18:16 1.0M
20260503T12Z_MSC_CAPS_AirTemp_IsbL-0750_RLatLon0.03_PT033H.grib2 2026-05-03 18:16 1.0M
20260503T12Z_MSC_CAPS_AirTemp_IsbL-0800_RLatLon0.03_PT033H.grib2 2026-05-03 18:16 1.1M
20260503T12Z_MSC_CAPS_AirTemp_IsbL-0850_RLatLon0.03_PT033H.grib2 2026-05-03 18:16 1.1M
20260503T12Z_MSC_CAPS_AirTemp_IsbL-0875_RLatLon0.03_PT033H.grib2 2026-05-03 18:16 1.0M
20260503T12Z_MSC_CAPS_AirTemp_IsbL-0900_RLatLon0.03_PT033H.grib2 2026-05-03 18:16 1.0M
20260503T12Z_MSC_CAPS_AirTemp_IsbL-0925_RLatLon0.03_PT033H.grib2 2026-05-03 18:16 1.1M
20260503T12Z_MSC_CAPS_AirTemp_IsbL-0950_RLatLon0.03_PT033H.grib2 2026-05-03 18:16 1.1M
20260503T12Z_MSC_CAPS_AirTemp_IsbL-0970_RLatLon0.03_PT033H.grib2 2026-05-03 18:16 1.1M
20260503T12Z_MSC_CAPS_AirTemp_IsbL-0985_RLatLon0.03_PT033H.grib2 2026-05-03 18:16 1.0M
20260503T12Z_MSC_CAPS_AirTemp_IsbL-1000_RLatLon0.03_PT033H.grib2 2026-05-03 18:16 1.0M
20260503T12Z_MSC_CAPS_AirTemp_IsbL-1015_RLatLon0.03_PT033H.grib2 2026-05-03 18:16 1.0M
20260503T12Z_MSC_CAPS_Albedo_Sfc_RLatLon0.03_PT033H.grib2 2026-05-03 18:16 2.7M
20260503T12Z_MSC_CAPS_CAPE_Sfc_RLatLon0.03_PT033H.grib2 2026-05-03 18:16 180K
20260503T12Z_MSC_CAPS_CloudWater_EAtm_RLatLon0.03_PT033H.grib2 2026-05-03 18:16 1.6M
20260503T12Z_MSC_CAPS_ConvectivePrecip-Accum_Sfc_RLatLon0.03_PT033H.grib2 2026-05-03 18:16 4.9M
20260503T12Z_MSC_CAPS_DewPointDepression_AGL-120m_RLatLon0.03_PT033H.grib2 2026-05-03 18:16 2.1M
20260503T12Z_MSC_CAPS_DewPointDepression_AGL-2m_RLatLon0.03_PT033H.grib2 2026-05-03 18:16 2.2M
20260503T12Z_MSC_CAPS_DewPointDepression_AGL-40m_RLatLon0.03_PT033H.grib2 2026-05-03 18:16 2.2M
20260503T12Z_MSC_CAPS_DewPointDepression_AGL-80m_RLatLon0.03_PT033H.grib2 2026-05-03 18:16 2.1M
20260503T12Z_MSC_CAPS_DewPointDepression_IsbL-0050_RLatLon0.03_PT033H.grib2 2026-05-03 18:16 7.7K
20260503T12Z_MSC_CAPS_DewPointDepression_IsbL-0100_RLatLon0.03_PT033H.grib2 2026-05-03 18:16 81K
20260503T12Z_MSC_CAPS_DewPointDepression_IsbL-0150_RLatLon0.03_PT033H.grib2 2026-05-03 18:16 87K
20260503T12Z_MSC_CAPS_DewPointDepression_IsbL-0175_RLatLon0.03_PT033H.grib2 2026-05-03 18:16 211K
20260503T12Z_MSC_CAPS_DewPointDepression_IsbL-0200_RLatLon0.03_PT033H.grib2 2026-05-03 18:16 385K
20260503T12Z_MSC_CAPS_DewPointDepression_IsbL-0225_RLatLon0.03_PT033H.grib2 2026-05-03 18:16 661K
20260503T12Z_MSC_CAPS_DewPointDepression_IsbL-0250_RLatLon0.03_PT033H.grib2 2026-05-03 18:16 857K
20260503T12Z_MSC_CAPS_DewPointDepression_IsbL-0275_RLatLon0.03_PT033H.grib2 2026-05-03 18:16 1.0M
20260503T12Z_MSC_CAPS_DewPointDepression_IsbL-0300_RLatLon0.03_PT033H.grib2 2026-05-03 18:16 1.0M
20260503T12Z_MSC_CAPS_DewPointDepression_IsbL-0350_RLatLon0.03_PT033H.grib2 2026-05-03 18:16 1.1M
20260503T12Z_MSC_CAPS_DewPointDepression_IsbL-0400_RLatLon0.03_PT033H.grib2 2026-05-03 18:16 1.1M
20260503T12Z_MSC_CAPS_DewPointDepression_IsbL-0450_RLatLon0.03_PT033H.grib2 2026-05-03 18:16 1.1M
20260503T12Z_MSC_CAPS_DewPointDepression_IsbL-0500_RLatLon0.03_PT033H.grib2 2026-05-03 18:16 1.2M
20260503T12Z_MSC_CAPS_DewPointDepression_IsbL-0550_RLatLon0.03_PT033H.grib2 2026-05-03 18:16 1.2M
20260503T12Z_MSC_CAPS_DewPointDepression_IsbL-0600_RLatLon0.03_PT033H.grib2 2026-05-03 18:16 1.3M
20260503T12Z_MSC_CAPS_DewPointDepression_IsbL-0650_RLatLon0.03_PT033H.grib2 2026-05-03 18:16 1.3M
20260503T12Z_MSC_CAPS_DewPointDepression_IsbL-0700_RLatLon0.03_PT033H.grib2 2026-05-03 18:16 1.3M
20260503T12Z_MSC_CAPS_DewPointDepression_IsbL-0750_RLatLon0.03_PT033H.grib2 2026-05-03 18:16 1.3M
20260503T12Z_MSC_CAPS_DewPointDepression_IsbL-0800_RLatLon0.03_PT033H.grib2 2026-05-03 18:16 1.3M
20260503T12Z_MSC_CAPS_DewPointDepression_IsbL-0850_RLatLon0.03_PT033H.grib2 2026-05-03 18:16 1.4M
20260503T12Z_MSC_CAPS_DewPointDepression_IsbL-0875_RLatLon0.03_PT033H.grib2 2026-05-03 18:16 1.4M
20260503T12Z_MSC_CAPS_DewPointDepression_IsbL-0900_RLatLon0.03_PT033H.grib2 2026-05-03 18:16 1.4M
20260503T12Z_MSC_CAPS_DewPointDepression_IsbL-0925_RLatLon0.03_PT033H.grib2 2026-05-03 18:16 1.4M
20260503T12Z_MSC_CAPS_DewPointDepression_IsbL-0950_RLatLon0.03_PT033H.grib2 2026-05-03 18:16 1.3M
20260503T12Z_MSC_CAPS_DewPointDepression_IsbL-0970_RLatLon0.03_PT033H.grib2 2026-05-03 18:16 1.3M
20260503T12Z_MSC_CAPS_DewPointDepression_IsbL-0985_RLatLon0.03_PT033H.grib2 2026-05-03 18:16 1.3M
20260503T12Z_MSC_CAPS_DewPointDepression_IsbL-1000_RLatLon0.03_PT033H.grib2 2026-05-03 18:16 1.3M
20260503T12Z_MSC_CAPS_DewPointDepression_IsbL-1015_RLatLon0.03_PT033H.grib2 2026-05-03 18:16 1.3M
20260503T12Z_MSC_CAPS_DewPoint_AGL-120m_RLatLon0.03_PT033H.grib2 2026-05-03 18:16 3.7M
20260503T12Z_MSC_CAPS_DewPoint_AGL-2m_RLatLon0.03_PT033H.grib2 2026-05-03 18:16 1.7M
20260503T12Z_MSC_CAPS_DewPoint_AGL-40m_RLatLon0.03_PT033H.grib2 2026-05-03 18:16 3.7M
20260503T12Z_MSC_CAPS_DewPoint_AGL-80m_RLatLon0.03_PT033H.grib2 2026-05-03 18:16 3.7M
20260503T12Z_MSC_CAPS_DownwardLongwaveRadiationFlux-Accum_Sfc_RLatLon0.03_PT033H.grib2 2026-05-03 18:16 2.5M
20260503T12Z_MSC_CAPS_DownwardShortwaveRadiationFlux-Accum_NTAtm_RLatLon0.03_PT033H.grib2 2026-05-03 18:16 399K
20260503T12Z_MSC_CAPS_DownwardShortwaveRadiationFlux-Accum_Sfc_RLatLon0.03_PT033H.grib2 2026-05-03 18:16 2.8M
20260503T12Z_MSC_CAPS_FreezingRain-Accum_Sfc_RLatLon0.03_PT033H.grib2 2026-05-03 18:16 764K
20260503T12Z_MSC_CAPS_GeopotentialHeight_IsbL-0050_RLatLon0.03_PT033H.grib2 2026-05-03 18:16 640K
20260503T12Z_MSC_CAPS_GeopotentialHeight_IsbL-0100_RLatLon0.03_PT033H.grib2 2026-05-03 18:16 765K
20260503T12Z_MSC_CAPS_GeopotentialHeight_IsbL-0150_RLatLon0.03_PT033H.grib2 2026-05-03 18:16 617K
20260503T12Z_MSC_CAPS_GeopotentialHeight_IsbL-0175_RLatLon0.03_PT033H.grib2 2026-05-03 18:16 737K
20260503T12Z_MSC_CAPS_GeopotentialHeight_IsbL-0200_RLatLon0.03_PT033H.grib2 2026-05-03 18:16 748K
20260503T12Z_MSC_CAPS_GeopotentialHeight_IsbL-0225_RLatLon0.03_PT033H.grib2 2026-05-03 18:16 760K
20260503T12Z_MSC_CAPS_GeopotentialHeight_IsbL-0250_RLatLon0.03_PT033H.grib2 2026-05-03 18:16 768K
20260503T12Z_MSC_CAPS_GeopotentialHeight_IsbL-0275_RLatLon0.03_PT033H.grib2 2026-05-03 18:16 779K
20260503T12Z_MSC_CAPS_GeopotentialHeight_IsbL-0300_RLatLon0.03_PT033H.grib2 2026-05-03 18:16 783K
20260503T12Z_MSC_CAPS_GeopotentialHeight_IsbL-0350_RLatLon0.03_PT033H.grib2 2026-05-03 18:16 785K
20260503T12Z_MSC_CAPS_GeopotentialHeight_IsbL-0400_RLatLon0.03_PT033H.grib2 2026-05-03 18:16 779K
20260503T12Z_MSC_CAPS_GeopotentialHeight_IsbL-0450_RLatLon0.03_PT033H.grib2 2026-05-03 18:16 770K
20260503T12Z_MSC_CAPS_GeopotentialHeight_IsbL-0500_RLatLon0.03_PT033H.grib2 2026-05-03 18:16 760K
20260503T12Z_MSC_CAPS_GeopotentialHeight_IsbL-0550_RLatLon0.03_PT033H.grib2 2026-05-03 18:16 640K
20260503T12Z_MSC_CAPS_GeopotentialHeight_IsbL-0600_RLatLon0.03_PT033H.grib2 2026-05-03 18:16 636K
20260503T12Z_MSC_CAPS_GeopotentialHeight_IsbL-0650_RLatLon0.03_PT033H.grib2 2026-05-03 18:16 812K
20260503T12Z_MSC_CAPS_GeopotentialHeight_IsbL-0700_RLatLon0.03_PT033H.grib2 2026-05-03 18:16 884K
20260503T12Z_MSC_CAPS_GeopotentialHeight_IsbL-0750_RLatLon0.03_PT033H.grib2 2026-05-03 18:16 888K
20260503T12Z_MSC_CAPS_GeopotentialHeight_IsbL-0800_RLatLon0.03_PT033H.grib2 2026-05-03 18:16 896K
20260503T12Z_MSC_CAPS_GeopotentialHeight_IsbL-0850_RLatLon0.03_PT033H.grib2 2026-05-03 18:16 905K
20260503T12Z_MSC_CAPS_GeopotentialHeight_IsbL-0875_RLatLon0.03_PT033H.grib2 2026-05-03 18:16 913K
20260503T12Z_MSC_CAPS_GeopotentialHeight_IsbL-0900_RLatLon0.03_PT033H.grib2 2026-05-03 18:16 841K
20260503T12Z_MSC_CAPS_GeopotentialHeight_IsbL-0925_RLatLon0.03_PT033H.grib2 2026-05-03 18:16 850K
20260503T12Z_MSC_CAPS_GeopotentialHeight_IsbL-0950_RLatLon0.03_PT033H.grib2 2026-05-03 18:16 852K
20260503T12Z_MSC_CAPS_GeopotentialHeight_IsbL-0970_RLatLon0.03_PT033H.grib2 2026-05-03 18:16 869K
20260503T12Z_MSC_CAPS_GeopotentialHeight_IsbL-0985_RLatLon0.03_PT033H.grib2 2026-05-03 18:16 878K
20260503T12Z_MSC_CAPS_GeopotentialHeight_IsbL-1000_RLatLon0.03_PT033H.grib2 2026-05-03 18:16 887K
20260503T12Z_MSC_CAPS_GeopotentialHeight_IsbL-1015_RLatLon0.03_PT033H.grib2 2026-05-03 18:16 896K
20260503T12Z_MSC_CAPS_GeopotentialHeight_Sfc_RLatLon0.03_PT033H.grib2 2026-05-03 18:16 1.0M
20260503T12Z_MSC_CAPS_IcePellets-Accum_Sfc_RLatLon0.03_PT033H.grib2 2026-05-03 18:16 37K
20260503T12Z_MSC_CAPS_LatentHeatNetFlux_Sfc_RLatLon0.03_PT033H.grib2 2026-05-03 18:16 2.0M
20260503T12Z_MSC_CAPS_LiftedIndex-MU-VT_IsbL-0500_RLatLon0.03_PT033H.grib2 2026-05-03 18:16 3.4M
20260503T12Z_MSC_CAPS_MixedLayerThickness_Sfc_RLatLon0.03_PT033H.nc 2026-05-03 18:13 16M
20260503T12Z_MSC_CAPS_NetLongwaveRadiationFlux-Accum_Sfc_RLatLon0.03_PT033H.grib2 2026-05-03 18:16 2.7M
20260503T12Z_MSC_CAPS_NetShortwaveRadiationFlux-Accum_Sfc_RLatLon0.03_PT033H.grib2 2026-05-03 18:16 2.7M
20260503T12Z_MSC_CAPS_PlanetaryBoundaryLayerHeight_Sfc_RLatLon0.03_PT033H.grib2 2026-05-03 18:16 3.1M
20260503T12Z_MSC_CAPS_Precip-Accum_Sfc_RLatLon0.03_PT033H.grib2 2026-05-03 18:16 5.3M
20260503T12Z_MSC_CAPS_PrecipRate_Sfc_RLatLon0.03_PT033H.grib2 2026-05-03 18:16 482K
20260503T12Z_MSC_CAPS_PrecipType-Instant_Sfc_RLatLon0.03_PT033H.grib2 2026-05-03 18:16 1.9M
20260503T12Z_MSC_CAPS_Pressure_MSL_RLatLon0.03_PT033H.grib2 2026-05-03 18:16 772K
20260503T12Z_MSC_CAPS_Pressure_Sfc_RLatLon0.03_PT033H.grib2 2026-05-03 18:16 1.2M
20260503T12Z_MSC_CAPS_RadiativeTemp_Sfc_RLatLon0.03_PT033H.grib2 2026-05-03 18:16 2.1M
20260503T12Z_MSC_CAPS_Rain-Accum_Sfc_RLatLon0.03_PT033H.grib2 2026-05-03 18:16 2.7M
20260503T12Z_MSC_CAPS_RelativeHumidity_AGL-120m_RLatLon0.03_PT033H.grib2 2026-05-03 18:16 2.9M
20260503T12Z_MSC_CAPS_RelativeHumidity_AGL-2m_RLatLon0.03_PT033H.grib2 2026-05-03 18:16 2.9M
20260503T12Z_MSC_CAPS_RelativeHumidity_AGL-40m_RLatLon0.03_PT033H.grib2 2026-05-03 18:16 2.9M
20260503T12Z_MSC_CAPS_RelativeHumidity_AGL-80m_RLatLon0.03_PT033H.grib2 2026-05-03 18:16 2.9M
20260503T12Z_MSC_CAPS_RelativeHumidity_IsbL-0050_RLatLon0.03_PT033H.grib2 2026-05-03 18:16 1.0M
20260503T12Z_MSC_CAPS_RelativeHumidity_IsbL-0100_RLatLon0.03_PT033H.grib2 2026-05-03 18:16 883K
20260503T12Z_MSC_CAPS_RelativeHumidity_IsbL-0150_RLatLon0.03_PT033H.grib2 2026-05-03 18:16 612K
20260503T12Z_MSC_CAPS_RelativeHumidity_IsbL-0175_RLatLon0.03_PT033H.grib2 2026-05-03 18:16 492K
20260503T12Z_MSC_CAPS_RelativeHumidity_IsbL-0200_RLatLon0.03_PT033H.grib2 2026-05-03 18:16 659K
20260503T12Z_MSC_CAPS_RelativeHumidity_IsbL-0225_RLatLon0.03_PT033H.grib2 2026-05-03 18:16 881K
20260503T12Z_MSC_CAPS_RelativeHumidity_IsbL-0250_RLatLon0.03_PT033H.grib2 2026-05-03 18:16 1.1M
20260503T12Z_MSC_CAPS_RelativeHumidity_IsbL-0275_RLatLon0.03_PT033H.grib2 2026-05-03 18:16 1.4M
20260503T12Z_MSC_CAPS_RelativeHumidity_IsbL-0300_RLatLon0.03_PT033H.grib2 2026-05-03 18:16 1.7M
20260503T12Z_MSC_CAPS_RelativeHumidity_IsbL-0350_RLatLon0.03_PT033H.grib2 2026-05-03 18:16 1.9M
20260503T12Z_MSC_CAPS_RelativeHumidity_IsbL-0400_RLatLon0.03_PT033H.grib2 2026-05-03 18:16 2.1M
20260503T12Z_MSC_CAPS_RelativeHumidity_IsbL-0450_RLatLon0.03_PT033H.grib2 2026-05-03 18:16 2.0M
20260503T12Z_MSC_CAPS_RelativeHumidity_IsbL-0500_RLatLon0.03_PT033H.grib2 2026-05-03 18:16 2.2M
20260503T12Z_MSC_CAPS_RelativeHumidity_IsbL-0550_RLatLon0.03_PT033H.grib2 2026-05-03 18:16 2.2M
20260503T12Z_MSC_CAPS_RelativeHumidity_IsbL-0600_RLatLon0.03_PT033H.grib2 2026-05-03 18:16 2.2M
20260503T12Z_MSC_CAPS_RelativeHumidity_IsbL-0650_RLatLon0.03_PT033H.grib2 2026-05-03 18:16 2.3M
20260503T12Z_MSC_CAPS_RelativeHumidity_IsbL-0700_RLatLon0.03_PT033H.grib2 2026-05-03 18:16 2.3M
20260503T12Z_MSC_CAPS_RelativeHumidity_IsbL-0750_RLatLon0.03_PT033H.grib2 2026-05-03 18:16 2.4M
20260503T12Z_MSC_CAPS_RelativeHumidity_IsbL-0800_RLatLon0.03_PT033H.grib2 2026-05-03 18:16 2.6M
20260503T12Z_MSC_CAPS_RelativeHumidity_IsbL-0850_RLatLon0.03_PT033H.grib2 2026-05-03 18:16 2.6M
20260503T12Z_MSC_CAPS_RelativeHumidity_IsbL-0875_RLatLon0.03_PT033H.grib2 2026-05-03 18:16 2.6M
20260503T12Z_MSC_CAPS_RelativeHumidity_IsbL-0900_RLatLon0.03_PT033H.grib2 2026-05-03 18:16 2.6M
20260503T12Z_MSC_CAPS_RelativeHumidity_IsbL-0925_RLatLon0.03_PT033H.grib2 2026-05-03 18:16 2.7M
20260503T12Z_MSC_CAPS_RelativeHumidity_IsbL-0950_RLatLon0.03_PT033H.grib2 2026-05-03 18:16 2.7M
20260503T12Z_MSC_CAPS_RelativeHumidity_IsbL-0970_RLatLon0.03_PT033H.grib2 2026-05-03 18:16 2.8M
20260503T12Z_MSC_CAPS_RelativeHumidity_IsbL-0985_RLatLon0.03_PT033H.grib2 2026-05-03 18:16 2.8M
20260503T12Z_MSC_CAPS_RelativeHumidity_IsbL-1000_RLatLon0.03_PT033H.grib2 2026-05-03 18:16 2.9M
20260503T12Z_MSC_CAPS_RelativeHumidity_IsbL-1015_RLatLon0.03_PT033H.grib2 2026-05-03 18:16 2.9M
20260503T12Z_MSC_CAPS_Runoff-Accum_Sfc_RLatLon0.03_PT033H.grib2 2026-05-03 18:16 303K
20260503T12Z_MSC_CAPS_SeaIceAreaFraction_Sfc_RLatLon0.03_PT033H.nc 2026-05-03 18:13 15M
20260503T12Z_MSC_CAPS_SeaIceCompressiveStrength_Sfc_RLatLon0.03_PT033H.nc 2026-05-03 18:13 15M
20260503T12Z_MSC_CAPS_SeaIceDivergence_Sfc_RLatLon0.03_PT033H.nc 2026-05-03 18:13 15M
20260503T12Z_MSC_CAPS_SeaIceInternalPressure_Sfc_RLatLon0.03_PT033H.nc 2026-05-03 18:13 15M
20260503T12Z_MSC_CAPS_SeaIceShear_Sfc_RLatLon0.03_PT033H.nc 2026-05-03 18:13 15M
20260503T12Z_MSC_CAPS_SeaIceSnowTemp_Sfc_RLatLon0.03_PT033H.nc 2026-05-03 18:13 14M
20260503T12Z_MSC_CAPS_SeaIceSnowVolume_Sfc_RLatLon0.03_PT033H.nc 2026-05-03 18:13 15M
20260503T12Z_MSC_CAPS_SeaIceVelocityX_Sfc_RLatLon0.03_PT033H.nc 2026-05-03 18:13 15M
20260503T12Z_MSC_CAPS_SeaIceVelocityY_Sfc_RLatLon0.03_PT033H.nc 2026-05-03 18:13 15M
20260503T12Z_MSC_CAPS_SeaIceVolume_Sfc_RLatLon0.03_PT033H.nc 2026-05-03 18:13 15M
20260503T12Z_MSC_CAPS_SeaSurfaceHeight_Sfc_RLatLon0.03_PT033H.nc 2026-05-03 18:13 16M
20260503T12Z_MSC_CAPS_SeaWaterSalinity_DBS-0.5m_RLatLon0.03_PT033H.nc 2026-05-03 18:13 16M
20260503T12Z_MSC_CAPS_SeaWaterSalinity_DBS-all_RLatLon0.03_PT033H.nc 2026-05-03 18:13 107M
20260503T12Z_MSC_CAPS_SeaWaterTemp_DBS-0.5m_RLatLon0.03_PT033H.nc 2026-05-03 18:13 15M
20260503T12Z_MSC_CAPS_SeaWaterTemp_DBS-all_RLatLon0.03_PT033H.nc 2026-05-03 18:13 88M
20260503T12Z_MSC_CAPS_SeaWaterVelocityX_DBS-0.5m_RLatLon0.03_PT033H.nc 2026-05-03 18:13 17M
20260503T12Z_MSC_CAPS_SeaWaterVelocityX_DBS-all_RLatLon0.03_PT033H.nc 2026-05-03 18:13 205M
20260503T12Z_MSC_CAPS_SeaWaterVelocityY_DBS-0.5m_RLatLon0.03_PT033H.nc 2026-05-03 18:13 18M
20260503T12Z_MSC_CAPS_SeaWaterVelocityY_DBS-all_RLatLon0.03_PT033H.nc 2026-05-03 18:13 216M
20260503T12Z_MSC_CAPS_SensibleHeatNetFlux_Sfc_RLatLon0.03_PT033H.grib2 2026-05-03 18:16 2.2M
20260503T12Z_MSC_CAPS_ShowalterIndex_IsbL-0500_RLatLon0.03_PT033H.grib2 2026-05-03 18:16 4.3M
20260503T12Z_MSC_CAPS_Snow-Accum_Sfc_RLatLon0.03_PT033H.grib2 2026-05-03 18:16 4.1M
20260503T12Z_MSC_CAPS_SnowDensity_Sfc_RLatLon0.03_PT033H.grib2 2026-05-03 18:16 1.3M
20260503T12Z_MSC_CAPS_SnowDepthWaterEquivalent_Sfc_RLatLon0.03_PT033H.grib2 2026-05-03 18:16 665K
20260503T12Z_MSC_CAPS_SnowDepth_Sfc_RLatLon0.03_PT033H.grib2 2026-05-03 18:16 1.1M
20260503T12Z_MSC_CAPS_SoilTemp_DBS-0to10cm_RLatLon0.03_PT033H.grib2 2026-05-03 18:16 1.7M
20260503T12Z_MSC_CAPS_SoilTemp_Sfc_RLatLon0.03_PT033H.grib2 2026-05-03 18:16 1.9M
20260503T12Z_MSC_CAPS_SoilVolumetricIceContent_Sfc_RLatLon0.03_PT033H.grib2 2026-05-03 18:16 1.4M
20260503T12Z_MSC_CAPS_SoilVolumetricWaterContent_DBS-0to10cm_RLatLon0.03_PT033H.grib2 2026-05-03 18:16 1.3M
20260503T12Z_MSC_CAPS_SoilVolumetricWaterContent_DBS-0to1cm_RLatLon0.03_PT033H.grib2 2026-05-03 18:16 1.7M
20260503T12Z_MSC_CAPS_SpecificHumidity_AGL-120m_RLatLon0.03_PT033H.grib2 2026-05-03 18:16 1.5M
20260503T12Z_MSC_CAPS_SpecificHumidity_AGL-2m_RLatLon0.03_PT033H.grib2 2026-05-03 18:16 1.7M
20260503T12Z_MSC_CAPS_SpecificHumidity_AGL-40m_RLatLon0.03_PT033H.grib2 2026-05-03 18:16 1.5M
20260503T12Z_MSC_CAPS_SpecificHumidity_AGL-80m_RLatLon0.03_PT033H.grib2 2026-05-03 18:16 1.5M
20260503T12Z_MSC_CAPS_SpecificHumidity_IsbL-0050_RLatLon0.03_PT033H.grib2 2026-05-03 18:16 918K
20260503T12Z_MSC_CAPS_SpecificHumidity_IsbL-0100_RLatLon0.03_PT033H.grib2 2026-05-03 18:16 1.0M
20260503T12Z_MSC_CAPS_SpecificHumidity_IsbL-0150_RLatLon0.03_PT033H.grib2 2026-05-03 18:16 791K
20260503T12Z_MSC_CAPS_SpecificHumidity_IsbL-0175_RLatLon0.03_PT033H.grib2 2026-05-03 18:16 1.0M
20260503T12Z_MSC_CAPS_SpecificHumidity_IsbL-0200_RLatLon0.03_PT033H.grib2 2026-05-03 18:16 904K
20260503T12Z_MSC_CAPS_SpecificHumidity_IsbL-0225_RLatLon0.03_PT033H.grib2 2026-05-03 18:16 867K
20260503T12Z_MSC_CAPS_SpecificHumidity_IsbL-0250_RLatLon0.03_PT033H.grib2 2026-05-03 18:16 1.1M
20260503T12Z_MSC_CAPS_SpecificHumidity_IsbL-0275_RLatLon0.03_PT033H.grib2 2026-05-03 18:16 1.1M
20260503T12Z_MSC_CAPS_SpecificHumidity_IsbL-0300_RLatLon0.03_PT033H.grib2 2026-05-03 18:16 1.1M
20260503T12Z_MSC_CAPS_SpecificHumidity_IsbL-0350_RLatLon0.03_PT033H.grib2 2026-05-03 18:16 972K
20260503T12Z_MSC_CAPS_SpecificHumidity_IsbL-0400_RLatLon0.03_PT033H.grib2 2026-05-03 18:16 964K
20260503T12Z_MSC_CAPS_SpecificHumidity_IsbL-0450_RLatLon0.03_PT033H.grib2 2026-05-03 18:16 1.1M
20260503T12Z_MSC_CAPS_SpecificHumidity_IsbL-0500_RLatLon0.03_PT033H.grib2 2026-05-03 18:16 1.1M
20260503T12Z_MSC_CAPS_SpecificHumidity_IsbL-0550_RLatLon0.03_PT033H.grib2 2026-05-03 18:16 1.3M
20260503T12Z_MSC_CAPS_SpecificHumidity_IsbL-0600_RLatLon0.03_PT033H.grib2 2026-05-03 18:16 1.4M
20260503T12Z_MSC_CAPS_SpecificHumidity_IsbL-0650_RLatLon0.03_PT033H.grib2 2026-05-03 18:16 1.5M
20260503T12Z_MSC_CAPS_SpecificHumidity_IsbL-0700_RLatLon0.03_PT033H.grib2 2026-05-03 18:16 1.3M
20260503T12Z_MSC_CAPS_SpecificHumidity_IsbL-0750_RLatLon0.03_PT033H.grib2 2026-05-03 18:16 1.4M
20260503T12Z_MSC_CAPS_SpecificHumidity_IsbL-0800_RLatLon0.03_PT033H.grib2 2026-05-03 18:16 1.6M
20260503T12Z_MSC_CAPS_SpecificHumidity_IsbL-0850_RLatLon0.03_PT033H.grib2 2026-05-03 18:16 1.8M
20260503T12Z_MSC_CAPS_SpecificHumidity_IsbL-0875_RLatLon0.03_PT033H.grib2 2026-05-03 18:16 1.4M
20260503T12Z_MSC_CAPS_SpecificHumidity_IsbL-0900_RLatLon0.03_PT033H.grib2 2026-05-03 18:16 1.5M
20260503T12Z_MSC_CAPS_SpecificHumidity_IsbL-0925_RLatLon0.03_PT033H.grib2 2026-05-03 18:16 1.6M
20260503T12Z_MSC_CAPS_SpecificHumidity_IsbL-0950_RLatLon0.03_PT033H.grib2 2026-05-03 18:16 1.6M
20260503T12Z_MSC_CAPS_SpecificHumidity_IsbL-0970_RLatLon0.03_PT033H.grib2 2026-05-03 18:16 1.6M
20260503T12Z_MSC_CAPS_SpecificHumidity_IsbL-0985_RLatLon0.03_PT033H.grib2 2026-05-03 18:16 1.7M
20260503T12Z_MSC_CAPS_SpecificHumidity_IsbL-1000_RLatLon0.03_PT033H.grib2 2026-05-03 18:16 1.7M
20260503T12Z_MSC_CAPS_SpecificHumidity_IsbL-1015_RLatLon0.03_PT033H.grib2 2026-05-03 18:16 1.7M
20260503T12Z_MSC_CAPS_SpecificHumidity_Sfc_RLatLon0.03_PT033H.grib2 2026-05-03 18:16 2.1M
20260503T12Z_MSC_CAPS_StormRelativeHelicity_Sfc_RLatLon0.03_PT033H.grib2 2026-05-03 18:16 3.3M
20260503T12Z_MSC_CAPS_Thickness_IsbL-1000to0500_RLatLon0.03_PT033H.grib2 2026-05-03 18:16 463K
20260503T12Z_MSC_CAPS_TotalCloudCover_Sfc_RLatLon0.03_PT033H.grib2 2026-05-03 18:16 3.5M
20260503T12Z_MSC_CAPS_TurboclineDepth_Sfc_RLatLon0.03_PT033H.nc 2026-05-03 18:13 16M
20260503T12Z_MSC_CAPS_UpwardLongwaveRadiationFlux_NTAtm_RLatLon0.03_PT033H.grib2 2026-05-03 18:16 2.9M
20260503T12Z_MSC_CAPS_UpwardShortwaveRadiationFlux_NTAtm_RLatLon0.03_PT033H.grib2 2026-05-03 18:16 2.5M
20260503T12Z_MSC_CAPS_VerticalVelocity_IsbL-0250_RLatLon0.03_PT033H.grib2 2026-05-03 18:16 915K
20260503T12Z_MSC_CAPS_VerticalVelocity_IsbL-0500_RLatLon0.03_PT033H.grib2 2026-05-03 18:16 1.1M
20260503T12Z_MSC_CAPS_VerticalVelocity_IsbL-0700_RLatLon0.03_PT033H.grib2 2026-05-03 18:16 959K
20260503T12Z_MSC_CAPS_VerticalVelocity_IsbL-0850_RLatLon0.03_PT033H.grib2 2026-05-03 18:16 1.1M
20260503T12Z_MSC_CAPS_VerticalVelocity_IsbL-1000_RLatLon0.03_PT033H.grib2 2026-05-03 18:16 1.4M
20260503T12Z_MSC_CAPS_WindDir_AGL-10m_RLatLon0.03_PT033H.grib2 2026-05-03 18:16 2.4M
20260503T12Z_MSC_CAPS_WindDir_AGL-120m_RLatLon0.03_PT033H.grib2 2026-05-03 18:16 1.3M
20260503T12Z_MSC_CAPS_WindDir_AGL-40m_RLatLon0.03_PT033H.grib2 2026-05-03 18:16 1.4M
20260503T12Z_MSC_CAPS_WindDir_AGL-80m_RLatLon0.03_PT033H.grib2 2026-05-03 18:16 1.3M
20260503T12Z_MSC_CAPS_WindDir_IsbL-0050_RLatLon0.03_PT033H.grib2 2026-05-03 18:16 1.0M
20260503T12Z_MSC_CAPS_WindDir_IsbL-0100_RLatLon0.03_PT033H.grib2 2026-05-03 18:16 1.1M
20260503T12Z_MSC_CAPS_WindDir_IsbL-0150_RLatLon0.03_PT033H.grib2 2026-05-03 18:16 1.0M
20260503T12Z_MSC_CAPS_WindDir_IsbL-0175_RLatLon0.03_PT033H.grib2 2026-05-03 18:16 1.1M
20260503T12Z_MSC_CAPS_WindDir_IsbL-0200_RLatLon0.03_PT033H.grib2 2026-05-03 18:16 1.1M
20260503T12Z_MSC_CAPS_WindDir_IsbL-0225_RLatLon0.03_PT033H.grib2 2026-05-03 18:16 1.1M
20260503T12Z_MSC_CAPS_WindDir_IsbL-0250_RLatLon0.03_PT033H.grib2 2026-05-03 18:16 1.1M
20260503T12Z_MSC_CAPS_WindDir_IsbL-0275_RLatLon0.03_PT033H.grib2 2026-05-03 18:16 1.1M
20260503T12Z_MSC_CAPS_WindDir_IsbL-0300_RLatLon0.03_PT033H.grib2 2026-05-03 18:16 1.0M
20260503T12Z_MSC_CAPS_WindDir_IsbL-0350_RLatLon0.03_PT033H.grib2 2026-05-03 18:16 1.1M
20260503T12Z_MSC_CAPS_WindDir_IsbL-0400_RLatLon0.03_PT033H.grib2 2026-05-03 18:16 1.1M
20260503T12Z_MSC_CAPS_WindDir_IsbL-0450_RLatLon0.03_PT033H.grib2 2026-05-03 18:16 1.2M
20260503T12Z_MSC_CAPS_WindDir_IsbL-0500_RLatLon0.03_PT033H.grib2 2026-05-03 18:16 1.2M
20260503T12Z_MSC_CAPS_WindDir_IsbL-0550_RLatLon0.03_PT033H.grib2 2026-05-03 18:16 1.3M
20260503T12Z_MSC_CAPS_WindDir_IsbL-0600_RLatLon0.03_PT033H.grib2 2026-05-03 18:16 1.2M
20260503T12Z_MSC_CAPS_WindDir_IsbL-0650_RLatLon0.03_PT033H.grib2 2026-05-03 18:16 1.3M
20260503T12Z_MSC_CAPS_WindDir_IsbL-0700_RLatLon0.03_PT033H.grib2 2026-05-03 18:16 1.4M
20260503T12Z_MSC_CAPS_WindDir_IsbL-0750_RLatLon0.03_PT033H.grib2 2026-05-03 18:16 1.5M
20260503T12Z_MSC_CAPS_WindDir_IsbL-0800_RLatLon0.03_PT033H.grib2 2026-05-03 18:16 1.6M
20260503T12Z_MSC_CAPS_WindDir_IsbL-0850_RLatLon0.03_PT033H.grib2 2026-05-03 18:16 1.8M
20260503T12Z_MSC_CAPS_WindDir_IsbL-0875_RLatLon0.03_PT033H.grib2 2026-05-03 18:16 1.8M
20260503T12Z_MSC_CAPS_WindDir_IsbL-0900_RLatLon0.03_PT033H.grib2 2026-05-03 18:16 1.9M
20260503T12Z_MSC_CAPS_WindDir_IsbL-0925_RLatLon0.03_PT033H.grib2 2026-05-03 18:16 2.0M
20260503T12Z_MSC_CAPS_WindDir_IsbL-0950_RLatLon0.03_PT033H.grib2 2026-05-03 18:16 2.0M
20260503T12Z_MSC_CAPS_WindDir_IsbL-0970_RLatLon0.03_PT033H.grib2 2026-05-03 18:16 2.1M
20260503T12Z_MSC_CAPS_WindDir_IsbL-0985_RLatLon0.03_PT033H.grib2 2026-05-03 18:16 2.2M
20260503T12Z_MSC_CAPS_WindDir_IsbL-1000_RLatLon0.03_PT033H.grib2 2026-05-03 18:16 2.3M
20260503T12Z_MSC_CAPS_WindDir_IsbL-1015_RLatLon0.03_PT033H.grib2 2026-05-03 18:16 2.4M
20260503T12Z_MSC_CAPS_WindGust-Max_AGL-10m_RLatLon0.03_PT033H.grib2 2026-05-03 18:16 2.6M
20260503T12Z_MSC_CAPS_WindGust-Min_AGL-10m_RLatLon0.03_PT033H.grib2 2026-05-03 18:16 2.5M
20260503T12Z_MSC_CAPS_WindGust_AGL-10m_RLatLon0.03_PT033H.grib2 2026-05-03 18:16 2.6M
20260503T12Z_MSC_CAPS_WindSpeed_AGL-10m_RLatLon0.03_PT033H.grib2 2026-05-03 18:16 2.1M
20260503T12Z_MSC_CAPS_WindSpeed_AGL-120m_RLatLon0.03_PT033H.grib2 2026-05-03 18:16 1.1M
20260503T12Z_MSC_CAPS_WindSpeed_AGL-40m_RLatLon0.03_PT033H.grib2 2026-05-03 18:16 1.6M
20260503T12Z_MSC_CAPS_WindSpeed_AGL-80m_RLatLon0.03_PT033H.grib2 2026-05-03 18:16 1.2M
20260503T12Z_MSC_CAPS_WindSpeed_IsbL-0050_RLatLon0.03_PT033H.grib2 2026-05-03 18:16 1.3M
20260503T12Z_MSC_CAPS_WindSpeed_IsbL-0100_RLatLon0.03_PT033H.grib2 2026-05-03 18:16 1.0M
20260503T12Z_MSC_CAPS_WindSpeed_IsbL-0150_RLatLon0.03_PT033H.grib2 2026-05-03 18:16 1.1M
20260503T12Z_MSC_CAPS_WindSpeed_IsbL-0175_RLatLon0.03_PT033H.grib2 2026-05-03 18:16 1.1M
20260503T12Z_MSC_CAPS_WindSpeed_IsbL-0200_RLatLon0.03_PT033H.grib2 2026-05-03 18:16 942K
20260503T12Z_MSC_CAPS_WindSpeed_IsbL-0225_RLatLon0.03_PT033H.grib2 2026-05-03 18:16 960K
20260503T12Z_MSC_CAPS_WindSpeed_IsbL-0250_RLatLon0.03_PT033H.grib2 2026-05-03 18:16 1.0M
20260503T12Z_MSC_CAPS_WindSpeed_IsbL-0275_RLatLon0.03_PT033H.grib2 2026-05-03 18:16 1.0M
20260503T12Z_MSC_CAPS_WindSpeed_IsbL-0300_RLatLon0.03_PT033H.grib2 2026-05-03 18:16 1.0M
20260503T12Z_MSC_CAPS_WindSpeed_IsbL-0350_RLatLon0.03_PT033H.grib2 2026-05-03 18:16 1.0M
20260503T12Z_MSC_CAPS_WindSpeed_IsbL-0400_RLatLon0.03_PT033H.grib2 2026-05-03 18:16 1.0M
20260503T12Z_MSC_CAPS_WindSpeed_IsbL-0450_RLatLon0.03_PT033H.grib2 2026-05-03 18:16 1.0M
20260503T12Z_MSC_CAPS_WindSpeed_IsbL-0500_RLatLon0.03_PT033H.grib2 2026-05-03 18:16 1.4M
20260503T12Z_MSC_CAPS_WindSpeed_IsbL-0550_RLatLon0.03_PT033H.grib2 2026-05-03 18:16 1.6M
20260503T12Z_MSC_CAPS_WindSpeed_IsbL-0600_RLatLon0.03_PT033H.grib2 2026-05-03 18:16 1.4M
20260503T12Z_MSC_CAPS_WindSpeed_IsbL-0650_RLatLon0.03_PT033H.grib2 2026-05-03 18:16 1.5M
20260503T12Z_MSC_CAPS_WindSpeed_IsbL-0700_RLatLon0.03_PT033H.grib2 2026-05-03 18:16 1.5M
20260503T12Z_MSC_CAPS_WindSpeed_IsbL-0750_RLatLon0.03_PT033H.grib2 2026-05-03 18:16 1.6M
20260503T12Z_MSC_CAPS_WindSpeed_IsbL-0800_RLatLon0.03_PT033H.grib2 2026-05-03 18:16 1.6M
20260503T12Z_MSC_CAPS_WindSpeed_IsbL-0850_RLatLon0.03_PT033H.grib2 2026-05-03 18:16 1.7M
20260503T12Z_MSC_CAPS_WindSpeed_IsbL-0875_RLatLon0.03_PT033H.grib2 2026-05-03 18:16 1.8M
20260503T12Z_MSC_CAPS_WindSpeed_IsbL-0900_RLatLon0.03_PT033H.grib2 2026-05-03 18:16 1.8M
20260503T12Z_MSC_CAPS_WindSpeed_IsbL-0925_RLatLon0.03_PT033H.grib2 2026-05-03 18:16 1.9M
20260503T12Z_MSC_CAPS_WindSpeed_IsbL-0950_RLatLon0.03_PT033H.grib2 2026-05-03 18:16 1.9M
20260503T12Z_MSC_CAPS_WindSpeed_IsbL-0970_RLatLon0.03_PT033H.grib2 2026-05-03 18:16 2.0M
20260503T12Z_MSC_CAPS_WindSpeed_IsbL-0985_RLatLon0.03_PT033H.grib2 2026-05-03 18:16 2.0M
20260503T12Z_MSC_CAPS_WindSpeed_IsbL-1000_RLatLon0.03_PT033H.grib2 2026-05-03 18:16 2.1M
20260503T12Z_MSC_CAPS_WindSpeed_IsbL-1015_RLatLon0.03_PT033H.grib2 2026-05-03 18:16 2.1M
20260503T12Z_MSC_CAPS_WindU_AGL-10m_RLatLon0.03_PT033H.grib2 2026-05-03 18:16 2.0M
20260503T12Z_MSC_CAPS_WindU_AGL-120m_RLatLon0.03_PT033H.grib2 2026-05-03 18:16 910K
20260503T12Z_MSC_CAPS_WindU_AGL-40m_RLatLon0.03_PT033H.grib2 2026-05-03 18:16 1.2M
20260503T12Z_MSC_CAPS_WindU_AGL-80m_RLatLon0.03_PT033H.grib2 2026-05-03 18:16 1.2M
20260503T12Z_MSC_CAPS_WindU_IsbL-0050_RLatLon0.03_PT033H.grib2 2026-05-03 18:16 940K
20260503T12Z_MSC_CAPS_WindU_IsbL-0100_RLatLon0.03_PT033H.grib2 2026-05-03 18:16 972K
20260503T12Z_MSC_CAPS_WindU_IsbL-0150_RLatLon0.03_PT033H.grib2 2026-05-03 18:16 928K
20260503T12Z_MSC_CAPS_WindU_IsbL-0175_RLatLon0.03_PT033H.grib2 2026-05-03 18:16 730K
20260503T12Z_MSC_CAPS_WindU_IsbL-0200_RLatLon0.03_PT033H.grib2 2026-05-03 18:16 876K
20260503T12Z_MSC_CAPS_WindU_IsbL-0225_RLatLon0.03_PT033H.grib2 2026-05-03 18:16 895K
20260503T12Z_MSC_CAPS_WindU_IsbL-0250_RLatLon0.03_PT033H.grib2 2026-05-03 18:16 699K
20260503T12Z_MSC_CAPS_WindU_IsbL-0275_RLatLon0.03_PT033H.grib2 2026-05-03 18:16 709K
20260503T12Z_MSC_CAPS_WindU_IsbL-0300_RLatLon0.03_PT033H.grib2 2026-05-03 18:16 714K
20260503T12Z_MSC_CAPS_WindU_IsbL-0350_RLatLon0.03_PT033H.grib2 2026-05-03 18:16 727K
20260503T12Z_MSC_CAPS_WindU_IsbL-0400_RLatLon0.03_PT033H.grib2 2026-05-03 18:16 949K
20260503T12Z_MSC_CAPS_WindU_IsbL-0450_RLatLon0.03_PT033H.grib2 2026-05-03 18:16 970K
20260503T12Z_MSC_CAPS_WindU_IsbL-0500_RLatLon0.03_PT033H.grib2 2026-05-03 18:16 1.0M
20260503T12Z_MSC_CAPS_WindU_IsbL-0550_RLatLon0.03_PT033H.grib2 2026-05-03 18:16 1.0M
20260503T12Z_MSC_CAPS_WindU_IsbL-0600_RLatLon0.03_PT033H.grib2 2026-05-03 18:16 957K
20260503T12Z_MSC_CAPS_WindU_IsbL-0650_RLatLon0.03_PT033H.grib2 2026-05-03 18:16 1.0M
20260503T12Z_MSC_CAPS_WindU_IsbL-0700_RLatLon0.03_PT033H.grib2 2026-05-03 18:16 1.0M
20260503T12Z_MSC_CAPS_WindU_IsbL-0750_RLatLon0.03_PT033H.grib2 2026-05-03 18:16 1.1M
20260503T12Z_MSC_CAPS_WindU_IsbL-0800_RLatLon0.03_PT033H.grib2 2026-05-03 18:16 1.1M
20260503T12Z_MSC_CAPS_WindU_IsbL-0850_RLatLon0.03_PT033H.grib2 2026-05-03 18:16 1.2M
20260503T12Z_MSC_CAPS_WindU_IsbL-0875_RLatLon0.03_PT033H.grib2 2026-05-03 18:16 1.3M
20260503T12Z_MSC_CAPS_WindU_IsbL-0900_RLatLon0.03_PT033H.grib2 2026-05-03 18:16 1.3M
20260503T12Z_MSC_CAPS_WindU_IsbL-0925_RLatLon0.03_PT033H.grib2 2026-05-03 18:16 1.3M
20260503T12Z_MSC_CAPS_WindU_IsbL-0950_RLatLon0.03_PT033H.grib2 2026-05-03 18:16 1.4M
20260503T12Z_MSC_CAPS_WindU_IsbL-0970_RLatLon0.03_PT033H.grib2 2026-05-03 18:16 1.4M
20260503T12Z_MSC_CAPS_WindU_IsbL-0985_RLatLon0.03_PT033H.grib2 2026-05-03 18:16 1.8M
20260503T12Z_MSC_CAPS_WindU_IsbL-1000_RLatLon0.03_PT033H.grib2 2026-05-03 18:16 1.8M
20260503T12Z_MSC_CAPS_WindU_IsbL-1015_RLatLon0.03_PT033H.grib2 2026-05-03 18:16 2.0M
20260503T12Z_MSC_CAPS_WindV_AGL-10m_RLatLon0.03_PT033H.grib2 2026-05-03 18:16 2.0M
20260503T12Z_MSC_CAPS_WindV_AGL-120m_RLatLon0.03_PT033H.grib2 2026-05-03 18:16 1.2M
20260503T12Z_MSC_CAPS_WindV_AGL-40m_RLatLon0.03_PT033H.grib2 2026-05-03 18:16 1.2M
20260503T12Z_MSC_CAPS_WindV_AGL-80m_RLatLon0.03_PT033H.grib2 2026-05-03 18:16 1.2M
20260503T12Z_MSC_CAPS_WindV_IsbL-0050_RLatLon0.03_PT033H.grib2 2026-05-03 18:16 767K
20260503T12Z_MSC_CAPS_WindV_IsbL-0100_RLatLon0.03_PT033H.grib2 2026-05-03 18:16 1.0M
20260503T12Z_MSC_CAPS_WindV_IsbL-0150_RLatLon0.03_PT033H.grib2 2026-05-03 18:16 714K
20260503T12Z_MSC_CAPS_WindV_IsbL-0175_RLatLon0.03_PT033H.grib2 2026-05-03 18:16 849K
20260503T12Z_MSC_CAPS_WindV_IsbL-0200_RLatLon0.03_PT033H.grib2 2026-05-03 18:16 869K
20260503T12Z_MSC_CAPS_WindV_IsbL-0225_RLatLon0.03_PT033H.grib2 2026-05-03 18:16 680K
20260503T12Z_MSC_CAPS_WindV_IsbL-0250_RLatLon0.03_PT033H.grib2 2026-05-03 18:16 700K
20260503T12Z_MSC_CAPS_WindV_IsbL-0275_RLatLon0.03_PT033H.grib2 2026-05-03 18:16 709K
20260503T12Z_MSC_CAPS_WindV_IsbL-0300_RLatLon0.03_PT033H.grib2 2026-05-03 18:16 715K
20260503T12Z_MSC_CAPS_WindV_IsbL-0350_RLatLon0.03_PT033H.grib2 2026-05-03 18:16 728K
20260503T12Z_MSC_CAPS_WindV_IsbL-0400_RLatLon0.03_PT033H.grib2 2026-05-03 18:16 733K
20260503T12Z_MSC_CAPS_WindV_IsbL-0450_RLatLon0.03_PT033H.grib2 2026-05-03 18:16 972K
20260503T12Z_MSC_CAPS_WindV_IsbL-0500_RLatLon0.03_PT033H.grib2 2026-05-03 18:16 1.0M
20260503T12Z_MSC_CAPS_WindV_IsbL-0550_RLatLon0.03_PT033H.grib2 2026-05-03 18:16 1.0M
20260503T12Z_MSC_CAPS_WindV_IsbL-0600_RLatLon0.03_PT033H.grib2 2026-05-03 18:16 956K
20260503T12Z_MSC_CAPS_WindV_IsbL-0650_RLatLon0.03_PT033H.grib2 2026-05-03 18:16 1.0M
20260503T12Z_MSC_CAPS_WindV_IsbL-0700_RLatLon0.03_PT033H.grib2 2026-05-03 18:16 1.0M
20260503T12Z_MSC_CAPS_WindV_IsbL-0750_RLatLon0.03_PT033H.grib2 2026-05-03 18:16 1.1M
20260503T12Z_MSC_CAPS_WindV_IsbL-0800_RLatLon0.03_PT033H.grib2 2026-05-03 18:16 1.1M
20260503T12Z_MSC_CAPS_WindV_IsbL-0850_RLatLon0.03_PT033H.grib2 2026-05-03 18:16 1.2M
20260503T12Z_MSC_CAPS_WindV_IsbL-0875_RLatLon0.03_PT033H.grib2 2026-05-03 18:16 1.3M
20260503T12Z_MSC_CAPS_WindV_IsbL-0900_RLatLon0.03_PT033H.grib2 2026-05-03 18:16 1.3M
20260503T12Z_MSC_CAPS_WindV_IsbL-0925_RLatLon0.03_PT033H.grib2 2026-05-03 18:16 1.3M
20260503T12Z_MSC_CAPS_WindV_IsbL-0950_RLatLon0.03_PT033H.grib2 2026-05-03 18:16 1.4M
20260503T12Z_MSC_CAPS_WindV_IsbL-0970_RLatLon0.03_PT033H.grib2 2026-05-03 18:16 1.4M
20260503T12Z_MSC_CAPS_WindV_IsbL-0985_RLatLon0.03_PT033H.grib2 2026-05-03 18:16 1.8M
20260503T12Z_MSC_CAPS_WindV_IsbL-1000_RLatLon0.03_PT033H.grib2 2026-05-03 18:16 1.9M
20260503T12Z_MSC_CAPS_WindV_IsbL-1015_RLatLon0.03_PT033H.grib2 2026-05-03 18:16 2.0M